WetterOnline ( https://www.wetteronline.ch )

Wetter aktuell Nesselwang

Aktuelles Wetter: Kempten (705m)

6-stündlich | Neueste Meldungen
Ortszeit Temperatur Wetter
Sa, 24.08. 8:00 14.6° C Nebel
Sa, 24.08. 2:00 15.7° C bedeckt
Fr, 23.08. 20:00 18.5° C bedeckt
Fr, 23.08. 14:00 18.7° C bedeckt
Fr, 23.08. 8:00 13.0° C bedeckt
Fr, 23.08. 2:00 13.9° C bedeckt
Do, 22.08. 20:00 15.3° C bedeckt
Do, 22.08. 8:00 13.0° C bedeckt
Ortszeit Temperatur Wetter
Sa, 24.08. 8:00 14.6° C Nebel
Sa, 24.08. 7:50 14.6° C Nebel
Sa, 24.08. 7:40 14.6° C Nebel
Sa, 24.08. 7:30 14.5° C bedeckt
Sa, 24.08. 7:20 14.5° C bedeckt
Sa, 24.08. 7:10 14.5° C bedeckt
Sa, 24.08. 7:00 14.1° C bedeckt
Sa, 24.08. 6:30 13.7° C bedeckt
Sa, 24.08. 6:00 13.5° C bedeckt
Sa, 24.08. 5:30 12.5° C bewölkt
Sa, 24.08. 5:00 12.3° C leicht bewölkt
Ortszeit Relative Feuchte Sichtweite
Sa, 24.08. 8:00 99% 0.4 km
Sa, 24.08. 2:00 94% 5.0 km
Fr, 23.08. 20:00 78% 16 km
Fr, 23.08. 14:00 73% 22 km
Fr, 23.08. 8:00 95% 9 km
Fr, 23.08. 2:00 89% 24 km
Do, 22.08. 20:00 83% 21 km
Do, 22.08. 8:00 91% 11 km
Ortszeit Relative Feuchte Sichtweite
Sa, 24.08. 8:00 99% 0.4 km
Sa, 24.08. 7:50 99% -
Sa, 24.08. 7:40 99% -
Sa, 24.08. 7:30 99% 1.4 km
Sa, 24.08. 7:20 99% -
Sa, 24.08. 7:10 99% -
Sa, 24.08. 7:00 99% 1.0 km
Sa, 24.08. 6:30 98% 1.9 km
Sa, 24.08. 6:00 98% 3.0 km
Sa, 24.08. 5:30 96% 5.0 km
Sa, 24.08. 5:00 97% 5.0 km
Ortszeit Niederschlagsmenge Niederschlagsart
Sa, 24.08. 8:00 0.0 l/m2 in 12 Std. -
Sa, 24.08. 2:00 0.0 l/m2 in 6 Std. -
Fr, 23.08. 20:00 0.0 l/m2 in 12 Std. -
Fr, 23.08. 14:00 0.0 l/m2 in 6 Std. -
Fr, 23.08. 8:00 0.0 l/m2 in 12 Std. -
Fr, 23.08. 2:00 0.0 l/m2 in 6 Std. -
Do, 22.08. 20:00 0.0 l/m2 in 3 Std. -
Do, 22.08. 8:00 0.0 l/m2 in 12 Std. -
Ortszeit Niederschlagsmenge Niederschlagsart
Sa, 24.08. 8:00 0.0 l/m2 in 1 Std. -
Sa, 24.08. 7:50 keine Meldung -
Sa, 24.08. 7:40 keine Meldung -
Sa, 24.08. 7:30 0.0 l/m2 in 1 Std. -
Sa, 24.08. 7:20 keine Meldung -
Sa, 24.08. 7:10 keine Meldung -
Sa, 24.08. 7:00 0.0 l/m2 in 1 Std. -
Sa, 24.08. 6:30 0.0 l/m2 in 1 Std. -
Sa, 24.08. 6:00 0.0 l/m2 in 1 Std. -
Sa, 24.08. 5:30 0.0 l/m2 in 1 Std. -
Sa, 24.08. 5:00 0.0 l/m2 in 1 Std. -
Ortszeit Stärke Spitze Richtung
km/h Bft. km/h Grad Sektor
Sa, 24.08. 8:00 4 1 7 180° S
Sa, 24.08. 2:00 4 1 11 100° O
Fr, 23.08. 20:00 4 1 22 80° O
Fr, 23.08. 14:00 9 2 24 90° O
Fr, 23.08. 8:00 0 0 14 - -
Fr, 23.08. 2:00 4 1 22 140° SO
Do, 22.08. 20:00 4 1 14 100° O
Do, 22.08. 8:00 4 1 18 60° NO
Ortszeit Stärke Spitze Richtung
km/h Bft. km/h Grad Sektor
Sa, 24.08. 8:00 4 1 7 180° S
Sa, 24.08. 7:50 4 1 - 180° S
Sa, 24.08. 7:40 4 1 - 180° S
Sa, 24.08. 7:30 0 0 7 - -
Sa, 24.08. 7:20 2 1 - 130° SO
Sa, 24.08. 7:10 4 1 - 130° SO
Sa, 24.08. 7:00 2 1 4 110° O
Sa, 24.08. 6:30 0 0 4 - -
Sa, 24.08. 6:00 0 0 4 - -
Sa, 24.08. 5:30 0 0 4 - -
Sa, 24.08. 5:00 2 1 6 180° S
Ortszeit Untergrenze Bedeckung Gattung
total tief tief mittel hoch
Sa, 24.08. 8:00 30 m 8/8 8/8 - - -
Sa, 24.08. 2:00 900 m 8/8 8/8 - - -
Fr, 23.08. 20:00 780 m 8/8 8/8 - - -
Fr, 23.08. 14:00 660 m 8/8 8/8 - - -
Fr, 23.08. 8:00 300 m 8/8 8/8 - - -
Fr, 23.08. 2:00 360 m 8/8 8/8 - - -
Do, 22.08. 20:00 510 m 8/8 8/8 - - -
Do, 22.08. 8:00 180 m 8/8 8/8 - - -
Ortszeit Bedeckungsgrad in Achtel und Wolkenuntergrenze
Sa, 24.08. 8:00 8(30m)
Sa, 24.08. 7:50 8(30m)
Sa, 24.08. 7:40 8(30m)
Sa, 24.08. 7:30 8(60m)
Sa, 24.08. 7:20 8(60m)
Sa, 24.08. 7:10 8(60m)
Sa, 24.08. 7:00 8(60m)
Sa, 24.08. 6:30 8(30m)
Sa, 24.08. 6:00 8(30m)
Sa, 24.08. 5:30 7(90m)
Sa, 24.08. 5:00 3(120m)
Ortszeit Luftdruck NN (hPa) Tendenz (hPa in 3 Std.)
Sa, 24.08. 8:00 1021 + 0,2
Sa, 24.08. 2:00 1021 - 0,9
Fr, 23.08. 20:00 1022 - 0,1
Fr, 23.08. 14:00 1023 - 0,5
Fr, 23.08. 8:00 1026 + 0,1
Fr, 23.08. 2:00 1025 - 0,7
Do, 22.08. 20:00 1025 + 0,5
Do, 22.08. 8:00 1024 + 0,4
Ortszeit Luftdruck NN (hPa) Tendenz (hPa in 3 Std.)
Sa, 24.08. 8:00 1021 + 0,2
Sa, 24.08. 7:50 1021 keine Meldung
Sa, 24.08. 7:40 1021 keine Meldung
Sa, 24.08. 7:30 1021 + 0,1
Sa, 24.08. 7:20 1021 keine Meldung
Sa, 24.08. 7:10 1021 keine Meldung
Sa, 24.08. 7:00 1021 0,0
Sa, 24.08. 6:30 1021 - 0,3
Sa, 24.08. 6:00 1021 - 0,4
Sa, 24.08. 5:30 1021 - 0,6
Sa, 24.08. 5:00 1022 - 0,7
Ortszeit Schneehöhe (cm)
Sa, 24.08. 8:00 -
Sa, 24.08. 2:00 -
Fr, 23.08. 20:00 -
Fr, 23.08. 14:00 -
Fr, 23.08. 8:00 -
Fr, 23.08. 2:00 -
Do, 22.08. 20:00 -
Do, 22.08. 8:00 -
Ortszeit Schneehöhe (cm)
Sa, 24.08. 8:00 -
Sa, 24.08. 7:50 -
Sa, 24.08. 7:40 -
Sa, 24.08. 7:30 -
Sa, 24.08. 7:20 -
Sa, 24.08. 7:10 -
Sa, 24.08. 7:00 -
Sa, 24.08. 6:30 -
Sa, 24.08. 6:00 -
Sa, 24.08. 5:30 -
Sa, 24.08. 5:00 -
Link zu dieser Seite / Seite empfehlen

Das Wetter in ...